Latest Weather Observations for Leonora Airport

IDW60801

Issued at 11:02 am WST Saturday 29 August 2015 (issued every 30 minutes, with the page automatically refreshed every 10 minutes)

About weather observations | Map of weather stations | Latest weather observations for WA | Other Formats
Station Details ID: 012241 Name: LEONORA AERO Lat: -28.88 Lon: 121.32 Height: 370.0 m
Data from the previous 72 hours. | See also: Recent months at Leonora Airport
Date/Time
WST
Temp
°C
App
Temp
°C
Dew
Point
Rel
Hum
%
Delta-T
°C
Wind Press
QNH
hPa
Press
MSL
hPa
Rain
since 9 am
mm
Dir
 
Spd
km/h
Gust
km/h
Spd
kts
Gust
kts
29/11:00am 25.7 21.5 1.8 21 11.6 ENE 13 17 7 9 1014.5 1014.0 0.0
29/10:30am 24.3 19.6 1.2 22 11.0 NNE 15 22 8 12 1015.0 1014.5 0.0
29/10:00am 22.1 17.9 1.7 26 9.7 E 13 19 7 10 1015.6 1015.1 0.0
29/09:30am 20.7 16.0 1.1 27 9.1 ESE 15 19 8 10 1015.9 1015.4 0.0
29/09:00am 19.1 15.6 1.1 30 8.2 SSE 9 11 5 6 1016.2 1015.7 0.0
29/08:30am 18.7 15.1 0.8 30 8.1 SE 9 15 5 8 1016.6 1016.1 0.0
29/08:00am 18.4 12.9 0.5 30 8.0 ENE 19 24 10 13 1016.0 1015.5 0.0
29/07:30am 17.7 13.7 0.8 32 7.6 NE 11 15 6 8 1016.5 1016.0 0.0
29/07:00am 16.4 13.4 0.9 35 6.9 SSE 6 9 3 5 1016.0 1015.5 0.0
29/06:30am 17.3 12.5 0.5 32 7.5 ENE 15 20 8 11 1015.2 1014.8 0.0
29/06:00am 17.6 11.5 0.3 31 7.7 NE 22 33 12 18 1014.8 1014.3 0.0
29/05:30am 18.0 12.7 -0.3 29 8.1 NNE 17 30 9 16 1015.3 1014.9 0.0
29/05:00am 18.0 12.4 -0.3 29 8.1 NE 19 28 10 15 1014.9 1014.4 0.0
29/04:30am 18.1 12.3 -0.2 29 8.1 NE 20 30 11 16 1015.1 1014.6 0.0
29/04:00am 17.4 12.7 0.6 32 7.5 NE 15 20 8 11 1014.9 1014.4 0.0
29/03:30am 17.6 12.9 0.7 32 7.6 NE 15 20 8 11 1015.2 1014.8 0.0
29/03:00am 18.2 13.5 0.8 31 7.8 ENE 15 19 8 10 1015.2 1014.8 0.0
29/02:30am 18.3 14.0 3.4 37 7.1 NNE 15 28 8 15 1015.6 1015.1 0.0
29/02:00am 18.4 13.6 0.5 30 8.0 NE 15 20 8 11 1015.7 1015.2 0.0
29/01:30am 17.8 13.9 1.3 33 7.5 NNE 11 19 6 10 1016.4 1015.9 0.0
29/01:00am 15.4 11.6 1.5 39 6.2 E 11 13 6 7 1016.1 1015.6 0.0
29/12:30am 16.0 11.9 2.1 39 6.3 ENE 13 15 7 8 1016.3 1015.8 0.0
29/12:00am 16.5 12.0 2.2 38 6.5 ENE 15 17 8 9 1016.3 1015.8 0.0
 
Date/Time
WST
Temp
°C
App
Temp
°C
Dew
Point
Rel
Hum
%
Delta-T
°C
Wind Press
QNH
hPa
Press
MSL
hPa
Rain
since 9 am
mm
Dir
 
Spd
km/h
Gust
km/h
Spd
kts
Gust
kts
28/11:30pm 16.1 12.8 2.5 40 6.2 NE 9 13 5 7 1016.9 1016.4 0.0
28/11:00pm 16.4 13.0 2.1 38 6.5 ENE 9 9 5 5 1017.2 1016.7 0.0
28/10:30pm 16.8 13.0 2.0 37 6.8 ENE 11 13 6 7 1017.2 1016.7 0.0
28/10:00pm 17.8 14.0 1.7 34 7.4 ENE 11 13 6 7 1017.4 1016.9 0.0
28/09:30pm 18.6 14.8 2.0 33 7.7 NE 11 13 6 7 1017.6 1017.2 0.0
28/09:00pm 18.1 15.2 2.4 35 7.3 ENE 7 9 4 5 1017.7 1017.3 0.0
28/08:30pm 18.1 14.4 2.4 35 7.3 ENE 11 13 6 7 1017.5 1017.0 0.0
28/08:00pm 18.2 14.8 2.1 34 7.4 NE 9 13 5 7 1017.4 1016.9 0.0
28/07:30pm 19.0 14.9 2.4 33 7.8 ENE 13 15 7 8 1017.0 1016.5 0.0
28/07:00pm 20.2 16.5 2.1 30 8.5 E 11 17 6 9 1016.9 1016.4 0.0
28/06:30pm 20.7 16.6 2.0 29 8.8 E 13 15 7 8 1016.6 1016.1 0.0
28/06:00pm 20.7 17.3 1.6 28 8.9 E 9 11 5 6 1016.4 1015.9 0.0
28/05:30pm 22.9 18.6 0.7 23 10.4 ENE 13 15 7 8 1016.1 1015.6 0.0
28/05:00pm 24.1 20.6 1.1 22 10.9 ENE 9 13 5 7 1016.1 1015.6 0.0
28/04:30pm 24.5 20.9 0.8 21 11.2 E 9 15 5 8 1016.0 1015.5 0.0
28/04:00pm 24.6 21.0 0.8 21 11.3 E 9 13 5 7 1016.0 1015.5 0.0
28/03:30pm 24.3 21.1 0.6 21 11.2 NNE 7 11 4 6 1016.2 1015.7 0.0
28/03:00pm 24.5 20.2 0.8 21 11.2 N 13 20 7 11 1016.4 1015.9 0.0
28/02:30pm 23.2 18.3 -0.3 21 10.8 NNW 15 20 8 11 1016.7 1016.2 0.0
28/02:00pm 24.0 18.2 -1.8 18 11.6 N 19 26 10 14 1016.8 1016.3 0.0
28/01:30pm 24.5 19.0 -2.1 17 11.9 N 17 22 9 12 1016.9 1016.4 0.0
28/01:00pm 24.2 18.8 -1.6 18 11.6 N 17 24 9 13 1017.2 1016.7 0.0
28/12:30pm 23.5 18.6 -0.7 20 11.1 N 15 20 8 11 1017.6 1017.2 0.0
28/12:00pm 22.8 17.5 -0.6 21 10.6 N 17 22 9 12 1018.1 1017.7 0.0
28/11:30am 22.5 17.5 -0.9 21 10.6 N 15 20 8 11 1018.9 1018.4 0.0
28/11:00am 22.6 17.7 -0.2 22 10.4 NNW 15 20 8 11 1019.3 1018.8 0.0
28/10:30am 22.2 19.0 -0.5 22 10.3 NW 6 13 3 7 1019.7 1019.2 0.0
28/10:00am 21.6 16.6 -1.0 22 10.1 NW 15 20 8 11 1020.0 1019.6 0.0
28/09:30am 22.0 17.1 -0.7 22 10.3 NNE 15 26 8 14 1019.9 1019.5 0.0
28/09:00am 20.0 14.6 -1.7 23 9.4 NNE 17 26 9 14 1019.9 1019.5 0.0
28/08:30am 19.3 13.9 -1.7 24 9.1 N 17 26 9 14 1019.9 1019.5 0.0
28/08:00am 17.7 11.6 -2.6 25 8.5 NNE 20 30 11 16 1019.7 1019.2 0.0
28/07:30am 16.1 9.9 -2.9 27 7.8 NNE 20 26 11 14 1019.4 1018.9 0.0
28/07:00am 14.6 9.0 -2.8 30 7.0 NNE 17 24 9 13 1019.0 1018.5 0.0
28/06:30am 14.4 8.8 -2.9 30 7.0 NE 17 22 9 12 1018.6 1018.1 0.0
28/06:00am 14.4 8.8 -2.9 30 6.9 NE 17 22 9 12 1018.9 1018.4 0.0
28/05:30am 14.3 8.8 -2.2 32 6.7 ENE 17 24 9 13 1018.7 1018.2 0.0
28/05:00am 14.8 10.8 -2.6 30 7.1 E 9 15 5 8 1019.2 1018.7 0.0
28/04:30am 14.1 10.8 -1.1 35 6.3 ESE 6 9 3 5 1019.3 1018.8 0.0
28/04:00am 13.8 10.2 -1.8 34 6.4 WNW 7 11 4 6 1019.5 1019.0 0.0
28/03:30am 13.8 10.4 -2.2 33 6.5 NE 6 9 3 5 1018.9 1018.4 0.0
28/03:00am 13.9 9.9 -2.5 32 6.6 ENE 9 11 5 6 1019.0 1018.5 0.0
28/02:30am 14.8 10.0 -2.6 30 7.1 ENE 13 17 7 9 1019.0 1018.5 0.0
28/02:00am 14.8 10.0 -2.6 30 7.1 ENE 13 19 7 10 1019.1 1018.6 0.0
28/01:30am 15.5 11.1 -2.4 29 7.4 E 11 17 6 9 1019.3 1018.8 0.0
28/01:00am 15.8 11.8 -2.2 29 7.4 SE 9 11 5 6 1019.8 1019.3 0.0
28/12:30am 17.0 12.9 -3.1 25 8.3 ENE 9 13 5 7 1019.6 1019.1 0.0
28/12:00am 16.6 12.1 -3.0 26 8.0 ENE 11 13 6 7 1019.4 1018.9 0.0
 
Date/Time
WST
Temp
°C
App
Temp
°C
Dew
Point
Rel
Hum
%
Delta-T
°C
Wind Press
QNH
hPa
Press
MSL
hPa
Rain
since 9 am
mm
Dir
 
Spd
km/h
Gust
km/h
Spd
kts
Gust
kts
27/11:30pm 16.7 12.2 -2.9 26 8.1 ENE 11 15 6 8 1019.4 1018.9 0.0
27/11:00pm 16.7 11.5 -2.9 26 8.1 ENE 15 19 8 10 1019.6 1019.1 0.0
27/10:30pm 17.0 11.0 -3.1 25 8.3 ENE 19 26 10 14 1019.8 1019.3 0.0
27/10:00pm 17.2 11.5 -3.5 24 8.4 E 17 22 9 12 1020.2 1019.8 0.0
27/09:30pm 17.2 12.3 -3.0 25 8.3 E 13 17 7 9 1020.8 1020.4 0.0
27/09:00pm 17.5 13.1 -2.7 25 8.4 E 11 15 6 8 1020.9 1020.5 0.0
27/08:30pm 17.6 12.7 -3.2 24 8.6 E 13 17 7 9 1020.9 1020.5 0.0
27/08:00pm 17.4 12.9 -3.4 24 8.5 ESE 11 15 6 8 1020.7 1020.3 0.0
27/07:30pm 17.7 12.8 -3.7 23 8.8 ESE 13 17 7 9 1020.5 1020.1 0.0
27/07:00pm 18.5 13.2 -3.6 22 9.1 ESE 15 17 8 9 1020.2 1019.8 0.0
27/06:30pm 19.6 14.3 -3.9 20 9.8 E 15 20 8 11 1020.0 1019.6 0.0
27/06:00pm 19.6 15.1 -3.3 21 9.6 ESE 11 11 6 6 1020.0 1019.6 0.0
27/05:30pm 19.8 15.2 -3.8 20 9.8 ESE 11 13 6 7 1019.7 1019.2 0.0
27/05:00pm 20.9 17.0 -4.3 18 10.5 SE 7 11 4 6 1019.3 1018.8 0.0
27/04:30pm 22.0 17.0 -4.1 17 11.0 ESE 13 19 7 10 1019.0 1018.5 0.0
27/04:00pm 22.0 18.3 -4.1 17 11.0 ESE 6 13 3 7 1018.9 1018.4 0.0
27/03:30pm 22.1 17.5 -4.1 17 11.1 E 11 17 6 9 1019.0 1018.5 0.0
27/03:00pm 22.6 18.4 -3.7 17 11.2 E 9 17 5 9 1019.0 1018.5 0.0
27/02:30pm 22.2 17.5 -4.8 16 11.3 NNE 11 22 6 12 1019.2 1018.7 0.0
27/02:00pm 22.6 16.9 -3.7 17 11.2 E 17 26 9 14 1019.3 1018.8 0.0
27/01:30pm 22.1 17.9 -4.1 17 11.1 NNE 9 19 5 10 1019.5 1019.0 0.0
27/01:00pm 21.9 17.3 -4.2 17 11.0 E 11 22 6 12 1019.8 1019.3 0.0
27/12:30pm 21.6 16.7 -3.7 18 10.7 NE 13 20 7 11 1020.3 1019.9 0.0
27/12:00pm 21.2 15.9 -3.3 19 10.4 NE 15 24 8 13 1020.7 1020.3 0.0
27/11:30am 20.4 14.8 -3.3 20 10.0 NE 17 24 9 13 1021.2 1020.7 0.0
27/11:00am 19.9 14.3 -3.0 21 9.7 NE 17 26 9 14 1021.8 1021.3 0.0
27/10:30am 19.4 13.5 -2.2 23 9.3 NNE 19 30 10 16 1022.0 1021.5 0.0
27/10:00am 18.0 12.1 -2.3 25 8.5 NNE 19 28 10 15 1022.2 1021.7 0.0
27/09:30am 17.2 10.0 -1.9 27 8.1 NNE 26 33 14 18 1022.4 1022.0 0.0
27/09:00am 16.9 10.2 -1.2 29 7.7 NE 24 39 13 21 1022.4 1022.0 0.0
27/08:30am 15.5 7.5 -2.0 30 7.3 NE 30 41 16 22 1022.3 1021.9 0.0
27/08:00am 14.3 9.0 -0.9 35 6.4 ENE 17 24 9 13 1022.3 1021.9 0.0
27/07:30am 12.2 7.2 -1.0 40 5.4 E 15 20 8 11 1022.1 1021.6 0.0
27/07:00am 10.0 6.3 -0.2 49 4.2 ESE 9 11 5 6 1022.0 1021.5 0.0
27/06:30am 9.1 5.7 -0.8 50 4.0 E 7 11 4 6 1021.6 1021.1 0.0
27/06:00am 8.9 4.7 -0.9 50 3.9 E 11 15 6 8 1021.3 1020.8 0.0
27/05:30am 8.7 4.5 -1.1 50 3.9 E 11 15 6 8 1021.0 1020.6 0.0
27/05:00am 9.0 4.4 -1.1 49 4.0 E 13 15 7 8 1020.9 1020.5 0.0
27/04:30am 9.3 4.7 -1.1 48 4.1 E 13 17 7 9 1020.8 1020.4 0.0
27/04:00am 9.2 4.6 -1.2 48 4.1 E 13 15 7 8 1020.6 1020.2 0.0
27/03:30am 10.0 5.4 -1.1 46 4.4 ENE 13 19 7 10 1020.6 1020.2 0.0
27/03:00am 9.8 5.2 -1.0 47 4.3 ENE 13 15 7 8 1020.8 1020.4 0.0
27/02:30am 10.3 5.7 -1.1 45 4.6 ENE 13 17 7 9 1021.0 1020.6 0.0
27/02:00am 10.7 6.1 -1.0 44 4.7 ENE 13 19 7 10 1021.2 1020.7 0.0
27/01:30am 11.3 6.7 -1.1 42 5.0 ENE 13 19 7 10 1021.3 1020.8 0.0
27/01:00am 11.7 7.1 -1.1 41 5.2 NE 13 17 7 9 1021.5 1021.0 0.0
27/12:30am 11.9 6.5 -1.3 40 5.4 ENE 17 24 9 13 1021.6 1021.1 0.0
27/12:00am 11.3 6.4 -0.8 43 4.9 ENE 15 20 8 11 1021.8 1021.3 0.0
 
Date/Time
WST
Temp
°C
App
Temp
°C
Dew
Point
Rel
Hum
%
Delta-T
°C
Wind Press
QNH
hPa
Press
MSL
hPa
Rain
since 9 am
mm
Dir
 
Spd
km/h
Gust
km/h
Spd
kts
Gust
kts
26/11:30pm 11.2 6.7 -0.6 44 4.8 ENE 13 17 7 9 1021.9 1021.4 0.0
26/11:00pm 11.9 7.4 -0.6 42 5.1 ENE 13 17 7 9 1022.1 1021.6 0.0
26/10:30pm 11.6 7.7 -1.2 41 5.2 ENE 9 13 5 7 1022.1 1021.6 0.0
26/10:00pm 12.8 8.6 -0.8 39 5.6 ENE 11 13 6 7 1022.0 1021.5 0.0
26/09:30pm 12.7 8.6 -0.2 41 5.4 ENE 11 15 6 8 1021.9 1021.4 0.0
26/09:00pm 12.8 9.1 -0.1 41 5.4 ENE 9 11 5 6 1021.9 1021.4 0.0
26/08:30pm 12.5 8.7 -0.4 41 5.4 E 9 11 5 6 1021.9 1021.4 0.0
26/08:00pm 13.4 9.6 -0.6 38 5.8 E 9 11 5 6 1021.9 1021.4 0.0
26/07:30pm 13.9 10.5 -0.9 36 6.2 E 7 11 4 6 1021.7 1021.2 0.0
26/07:00pm 15.4 11.6 -0.8 33 6.9 ESE 9 13 5 7 1021.5 1021.0 0.0
26/06:30pm 15.9 12.5 -0.8 32 7.1 SE 7 11 4 6 1021.4 1020.9 0.0
26/06:00pm 17.1 13.3 -1.1 29 7.8 SE 9 13 5 7 1021.0 1020.6 0.0
26/05:30pm 18.3 14.8 -1.5 26 8.5 E 7 15 4 8 1021.0 1020.6 0.0
26/05:00pm 19.4 14.7 -1.7 24 9.1 E 13 19 7 10 1020.7 1020.3 0.0
26/04:30pm 19.5 14.8 -1.6 24 9.2 ESE 13 19 7 10 1020.6 1020.2 0.0
26/04:00pm 19.1 15.2 -1.4 25 8.9 E 9 15 5 8 1020.5 1020.1 0.0
26/03:30pm 18.9 16.0 -1.0 26 8.7 ESE 4 15 2 8 1020.6 1020.2 0.0
26/03:00pm 18.7 13.8 -0.7 27 8.5 NNE 15 26 8 14 1020.7 1020.3 0.0
26/02:30pm 18.7 15.0 -0.2 28 8.4 NNE 9 20 5 11 1020.7 1020.3 0.0
26/02:00pm 18.5 13.6 -0.3 28 8.3 NE 15 22 8 12 1020.8 1020.4 0.0
26/01:30pm 19.2 15.6 0.3 28 8.5 NE 9 19 5 10 1021.0 1020.6 0.0
26/01:00pm 18.4 13.6 0.5 30 8.0 N 15 26 8 14 1021.5 1021.0 0.0
26/12:30pm 17.7 13.4 0.8 32 7.6 NNE 13 22 7 12 1022.1 1021.6 0.0
26/12:00pm 17.0 11.5 0.6 33 7.3 NE 19 28 10 15 1022.6 1022.2 0.0
26/11:30am 16.5 11.0 0.6 34 7.0 NE 19 30 10 16 1023.1 1022.7 0.0

Other Formats:

Comma delimited format used in spreadsheet applications
http://www.bom.gov.au/fwo/IDW60801/IDW60801.94450.axf

JavaScript Object Notation format (JSON) in row-major order
http://www.bom.gov.au/fwo/IDW60801/IDW60801.94450.json